Waterloo, IA

6:07 PM CST on January 23, 2018 (GMT -0600)
Waterloo Municipal

Weather History for KALO - November, 2012

Change the Weather History Date:

Thursday, November 22, 2012

  Actual Average Record
Temperature  
Mean Temperature 50 °F 33 °F  
Max Temperature 65 °F 42 °F 66 °F (1966)
Min Temperature 35 °F 24 °F -4 °F (1937)
Degree Days  
Heating Degree Days 15 32  
Month to date heating degree days 497 580  
Since 1 July heating degree days 1190 1203  
Cooling Degree Days 0 0  
Month to date cooling degree days 0 0  
Year to date cooling degree days 1083 799  
Growing Degree Days 2 (Base 50)    
Moisture  
Dew Point 37 °F    
Average Humidity 57    
Maximum Humidity 70    
Minimum Humidity 43    
Precipitation  
Precipitation 0.00 in 0.07 in 1.48 in (1963)
Month to date precipitation 1.14 1.54  
Year to date precipitation 22.32 32.93  
Snow  
Snow 0.00 in 0.10 in 5.00 in (1898)
Month to date snowfall 0.0 1.6  
Since 1 July snowfall 0.0 1.9  
Since 1 September snowfall 0.0 1.9  
Snow Depth 0.00 in    
Sea Level Pressure  
Sea Level Pressure 29.85 in    
Wind  
Wind Speed 17 mph (WSW)    
Max Wind Speed 31 mph    
Max Gust Speed 38 mph    
Visibility 10 miles    
Events      
T = Trace of Precipitation, MM = Missing Value Source: NWS Daily Summary

Daily Weather History Graph

Daily Weather History Graph

Search for Another Location

Airport or City:

Trip Planner

Search our weather history database for the weather conditions in past years. The results will help you decide how hot, cold, wet, or windy it might be!

Date:

Astronomy

Nov. 22, 2012 Rise Set
Actual Time 7:10 AM CST 4:41 PM CST
Civil Twilight 6:39 AM CST 5:12 PM CST
Nautical Twilight 6:04 AM CST 5:46 PM CST
Astronomical Twilight 5:30 AM CST 6:20 PM CST
Moon 1:33 PM CST (11/22) 1:23 AM CST (11/22)
Length of Visible Light 10h 33m
Length of Day
9h 31m
Waxing Gibbous, 71% of the Moon is Illuminated
Nov 22
Waxing Gibbous
Nov 28
Full
Dec 6
Last Quarter
Dec 13
New
Dec 19
First Quarter

Hourly Weather History & Observations

Time (CST) Temp. Windchill Dew Point Humidity Pressure Visibility Wind Dir Wind Speed Gust Speed Precip Events Conditions
12:54 AM 50.0 °F - 39.9 °F 68% 29.88 in 10.0 mi South 15.0 mph - N/A   Clear
1:54 AM 51.1 °F - 39.0 °F 63% 29.85 in 10.0 mi South 16.1 mph - N/A   Clear
2:54 AM 50.0 °F - 39.0 °F 66% 29.83 in 10.0 mi South 17.3 mph - N/A   Clear
3:54 AM 50.0 °F - 37.9 °F 63% 29.80 in 10.0 mi South 18.4 mph - N/A   Clear
4:54 AM 50.0 °F - 37.9 °F 63% 29.79 in 10.0 mi South 13.8 mph - N/A   Clear
5:54 AM 48.9 °F - 37.9 °F 66% 29.79 in 10.0 mi South 15.0 mph - N/A   Clear
6:54 AM 48.0 °F - 37.0 °F 66% 29.77 in 10.0 mi South 11.5 mph - N/A   Clear
7:54 AM 48.0 °F - 37.9 °F 68% 29.78 in 10.0 mi South 11.5 mph - N/A   Clear
8:54 AM 50.0 °F - 39.0 °F 66% 29.77 in 10.0 mi SSE 9.2 mph - N/A   Clear
9:54 AM 55.0 °F - 41.0 °F 59% 29.75 in 10.0 mi South 11.5 mph 18.4 mph N/A   Clear
10:54 AM 57.9 °F - 43.0 °F 58% 29.73 in 10.0 mi SSW 10.4 mph - N/A   Clear
11:54 AM 62.1 °F - 45.0 °F 53% 29.71 in 10.0 mi SW 17.3 mph 26.5 mph N/A   Clear
12:54 PM 62.1 °F - 46.0 °F 56% 29.69 in 10.0 mi SW 19.6 mph - N/A   Clear
1:54 PM 63.0 °F - 45.0 °F 52% 29.70 in 10.0 mi West 19.6 mph 24.2 mph N/A   Clear
2:54 PM 64.9 °F - 41.0 °F 42% 29.71 in 10.0 mi West 20.7 mph 26.5 mph N/A   Clear
3:54 PM 54.0 °F - 37.9 °F 55% 29.79 in 10.0 mi NW 23.0 mph 32.2 mph N/A   Clear
4:54 PM 44.1 °F 35.9 °F 34.0 °F 68% 29.87 in 10.0 mi NW 19.6 mph 31.1 mph N/A   Clear
5:54 PM 42.1 °F 33.1 °F 32.0 °F 67% 29.91 in 10.0 mi NW 20.7 mph 34.5 mph N/A   Clear
6:54 PM 39.9 °F 28.8 °F 30.9 °F 70% 29.97 in 10.0 mi WNW 27.6 mph 36.8 mph N/A   Partly Cloudy
7:07 PM 39.2 °F 28.5 °F 30.2 °F 70% 29.97 in 10.0 mi NW 24.2 mph 33.4 mph N/A   Mostly Cloudy
7:54 PM 39.9 °F 30.2 °F 30.0 °F 68% 29.99 in 10.0 mi NW 20.7 mph 31.1 mph N/A   Overcast
8:34 PM 39.2 °F 31.2 °F 30.2 °F 70% 30.00 in 10.0 mi NW 13.8 mph 27.6 mph N/A   Overcast
8:54 PM 39.9 °F 31.8 °F 30.9 °F 70% 30.03 in 10.0 mi WNW 15.0 mph 23.0 mph N/A   Overcast
9:54 PM 41.0 °F 33.5 °F 30.0 °F 65% 30.03 in 10.0 mi WNW 13.8 mph 26.5 mph N/A   Overcast
10:54 PM 39.0 °F 29.9 °F 27.0 °F 62% 30.02 in 10.0 mi WNW 17.3 mph 28.8 mph N/A   Mostly Cloudy
11:54 PM 35.1 °F 25.9 °F 24.1 °F 64% 30.02 in 10.0 mi West 13.8 mph 20.7 mph N/A   Clear